DW6005 Weather Reports


time (UTC)temp
C
wind
direction
speed
KPH
gust
KPH
rain 1hr
cm
rain 24hr
cm
rain mn
cm
humidity
%
barometer
mb
20260510210028 20 308 3.2 4.8 0.00 0.00 0.00 61 1012.3
20260510204522 21 255 3.2 6.4 0.00 0.00 0.00 59 1012.2
20260510203022 21 182 1.6 8.0 0.00 0.00 0.00 59 1012.0
20260510201521 21 146 1.6 6.4 0.00 0.00 0.00 58 1011.6
20260510200022 21 146 0.0 4.8 0.00 0.00 0.00 57 1011.3
20260510194523 21 146 0.0 1.6 0.00 0.00 0.00 56 1011.2
20260510193020 22 146 0.0 1.6 0.00 0.00 0.00 55 1010.9
20260510191535 22 146 0.0 1.6 0.00 0.00 0.00 53 1010.8
20260510190020 22 146 0.0 3.2 0.00 0.00 0.00 51 1010.5
20260510184517 23 146 0.0 3.2 0.00 0.00 0.00 50 1010.3
20260510183017 23 144 1.6 6.4 0.00 0.00 0.00 48 1010.4
20260510181516 23 186 1.6 6.4 0.00 0.00 0.00 47 1010.0
20260510180016 23 163 4.8 16.1 0.00 0.00 0.00 47 1010.1
20260510174515 24 205 8.0 17.7 0.00 0.00 0.00 46 1010.0
20260510173015 24 210 4.8 24.1 0.00 0.00 0.00 46 1010.0
20260510171515 25 146 4.8 17.7 0.00 0.00 0.00 45 1010.0
20260510170013 25 167 6.4 19.3 0.00 0.00 0.00 44 1010.1
20260510164519 25 190 6.4 20.9 0.00 0.00 0.00 45 1010.0
20260510163013 25 169 8.0 16.1 0.00 0.00 0.00 45 1010.0
20260510161511 26 180 4.8 17.7 0.00 0.00 0.00 44 1010.0
20260510160012 25 186 4.8 22.5 0.00 0.00 0.00 45 1010.2
20260510154507 26 248 6.4 22.5 0.00 0.00 0.00 44 1010.1
20260510153012 25 125 8.0 25.7 0.00 0.00 0.00 44 1010.2
20260510151505 25 192 4.8 22.5 0.00 0.00 0.00 46 1010.3
20260510150111 25 218 6.4 29.0 0.00 0.00 0.00 45 1010.6
20260510144616 26 234 6.4 25.7 0.00 0.00 0.00 46 1010.6
20260510143059 26 172 6.4 22.5 0.00 0.00 0.00 45 1010.8
20260510141556 26 188 9.7 19.3 0.00 0.00 0.00 44 1010.9
20260510140054 26 132 6.4 30.6 0.00 0.00 0.00 44 1010.9
20260510134554 26 184 8.0 25.7 0.00 0.00 0.00 45 1011.2
20260510133050 26 236 6.4 19.3 0.00 0.00 0.00 46 1011.3
20260510131548 25 242 9.7 24.1 0.00 0.00 0.00 46 1011.6
20260510130046 25 182 14.5 29.0 0.00 0.00 0.00 46 1011.7
20260510124557 26 220 8.0 27.4 0.00 0.00 0.00 47 1011.8
20260510123041 25 259 6.4 22.5 0.00 0.00 0.00 50 1012.1
20260510121540 25 250 8.0 25.7 0.00 0.00 0.00 49 1012.1
20260510120038 25 165 6.4 19.3 0.00 0.00 0.00 48 1012.4
20260510114535 24 232 3.2 11.3 0.00 0.00 0.00 51 1012.6
20260510113032 24 207 0.0 12.9 0.00 0.00 0.00 50 1012.7
20260510111530 24 288 3.2 11.3 0.00 0.00 0.00 51 1013.0
20260510110035 24 298 0.0 6.4 0.00 0.00 0.00 53 1013.3
20260510104524 23 149 3.2 14.5 0.00 0.00 0.00 55 1013.4
20260510103022 22 101 3.2 11.3 0.00 0.00 0.00 62 1013.5
20260510101516 22 112 6.4 14.5 0.00 0.00 0.00 62 1013.7
20260510100015 21 120 6.4 14.5 0.00 0.00 0.00 63 1013.8
20260510094525 21 111 4.8 12.9 0.00 0.20 0.00 66 1013.8
20260510093010 20 106 1.6 11.3 0.00 0.20 0.00 66 1014.0
20260510091503 20 61 4.8 8.0 0.00 0.20 0.00 68 1014.1
20260510090059 20 90 1.6 6.4 0.00 0.20 0.00 71 1014.2
20260510084559 19 90 1.6 6.4 0.00 0.25 0.00 70 1014.4
20260510083048 18 89 0.0 3.2 0.00 0.25 0.00 75 1014.5
20260510081544 18 89 0.0 4.8 0.00 0.25 0.00 76 1014.6
20260510080041 17 89 0.0 3.2 0.00 0.25 0.00 79 1014.6
20260510074535 17 89 0.0 4.8 0.00 0.28 0.00 80 1014.6
20260510073041 16 65 0.0 1.6 0.00 0.28 0.00 83 1014.7
20260510071529 15 65 0.0 1.6 0.00 0.28 0.00 85 1014.9
20260510070030 15 65 0.0 3.2 0.00 0.28 0.00 86 1014.8
20260510064523 14 65 0.0 4.8 0.00 0.33 0.00 88 1014.7
20260510063023 14 65 0.0 1.6 0.00 0.33 0.00 88 1014.7
20260510061519 13 65 0.0 0.0 0.00 0.33 0.00 88 1014.5
20260510060015 13 65 0.0 0.0 0.00 0.33 0.00 88 1014.4
20260510054512 13 65 0.0 0.0 0.00 0.33 0.00 88 1014.4
20260510053033 13 65 0.0 0.0 0.00 0.33 0.00 88 1014.2
20260510051508 12 65 0.0 0.0 0.00 0.33 0.00 88 1014.1
20260510050005 13 65 0.0 0.0 0.00 0.33 0.00 88 1014.1
20260510044505 13 66 0.0 0.0 0.00 0.33 0.00 88 1014.1
20260510043004 12 66 0.0 0.0 0.00 0.33 0.00 88 1014.1
20260510041505 13 66 0.0 0.0 0.00 0.33 0.00 88 1014.1
20260510040000 13 66 0.0 1.6 0.00 0.33 0.00 88 1013.9
20260510034600 13 66 0.0 0.0 0.00 0.33 0.00 87 1013.9
20260510033113 13 66 0.0 3.2 0.00 0.33 0.00 87 1013.9
20260510031558 13 66 0.0 1.6 0.00 0.33 0.00 87 1013.9
20260510024601 13 65 0.0 0.0 0.00 0.33 0.00 86 1013.8
20260510023054 13 65 0.0 1.6 0.00 0.33 0.00 86 1013.6
20260510021557 13 65 0.0 0.0 0.00 0.33 0.00 86 1013.6
20260510020055 13 65 0.0 1.6 0.00 0.33 0.00 86 1013.7
20260510014551 13 64 1.6 4.8 0.00 0.33 0.00 85 1013.7
20260510013052 14 64 0.0 0.0 0.00 0.33 0.00 85 1013.6
20260510011552 14 64 0.0 1.6 0.00 0.33 0.00 84 1013.5
20260510010047 14 64 0.0 0.0 0.00 0.33 0.00 84 1013.5
20260510004545 14 64 0.0 4.8 0.00 0.33 0.00 83 1013.6
20260510003043 15 63 0.0 0.0 0.00 0.33 0.00 83 1013.9
20260510001543 15 63 0.0 1.6 0.00 0.33 0.00 83 1014.0
20260510000047 15 63 0.0 0.0 0.00 0.33 0.00 82 1014.0
20260509234538 15 63 0.0 9.7 0.00 0.33 0.00 82 1013.9
20260509233036 15 27 1.6 9.7 0.00 0.33 0.00 82 1014.0
20260509231539 15 5 1.6 9.7 0.00 0.33 0.00 82 1014.1
20260509230035 15 192 0.0 0.0 0.00 0.33 0.00 82 1014.1
20260509224532 15 192 0.0 0.0 0.00 0.33 0.00 82 1014.2
20260509223031 15 193 0.0 1.6 0.00 0.33 0.00 81 1014.1
20260509221529 16 192 0.0 0.0 0.00 0.33 0.00 81 1014.2
20260509220026 16 193 0.0 0.0 0.00 0.33 0.00 80 1014.2
20260509214525 16 192 0.0 0.0 0.00 0.33 0.33 80 1014.0
20260509213031 16 193 0.0 0.0 0.00 0.33 0.33 79 1013.8
20260509211523 16 193 0.0 0.0 0.00 0.33 0.33 78 1013.8